Weather Roundup
Issued by NWS Chicago, IL

Home | Current Version | Previous Version | Graphics & Text | Print | Product List | Glossary On
Versions: 1 2 3 4 5 6 7 8 9 10 11 12 13 14 15 16 17 18 19 20 21 22 23 24 25 26 27 28 29 30 31 32 33 34 35 36 37 38 39 40 41 42 43 44 45 46 47 48 49 50
000
NZUS59 KLOT 012306
HRRLOT

CHICAGO AREA WEATHER ROUNDUP
NATIONAL WEATHER SERVICE CHICAGO/ROMEOVILLE IL
600 PM CDT FRI AUG 01 2014

NOTE: "FAIR" INDICATES FEW OR NO CLOUDS BELOW 12,000 FEET WITH NO
SIGNIFICANT WEATHER AND/OR OBSTRUCTIONS TO VISIBILITY.

* THESE STATIONS ARE NOT UNDER NWS QUALITY CONTROL. THEY ALSO MAY NOT
  REPORT WEATHER SUCH AS PRECIPITATION OR FOG.

ILZ005-006-012>014-019>023-020000-
NORTHEAST ILLINOIS

CITY           SKY/WX    TMP DP  RH WIND       PRES   REMARKS
OHARE          PTSUNNY   76  58  53 S10       30.07R
MIDWAY         CLOUDY    77  59  53 S7        30.08R
AURORA         CLOUDY    69  56  62 S9        30.07S THUNDER
WAUKEGAN       PTSUNNY   74  59  59 SE10      30.05F
DUPAGE AIRPORT LGT RAIN  74  59  59 N3        30.07S
WHEELING       PTSUNNY   78  63  59 SE14      30.07S HX  80
KANKAKEE*      CLOUDY    68  61  79 E3        30.10S
NORTHERLY IS     N/A     74  59  59 S3          N/A
$$

WIZ051-052-058>065-066-070>072-020000-
SOUTHEAST WISCONSIN

CITY           SKY/WX    TMP DP  RH WIND       PRES   REMARKS
MILWAUKEE      PTSUNNY   72  64  76 E6        30.06R THUNDER
KENOSHA*       MOSUNNY   79  59  50 S14       30.06S HX  80
RACINE*        PTSUNNY   76  59  55 S15       30.08R
BURLINGTON     MOSUNNY   79  55  42 CALM      30.05R HX  80
WAUKESHA       TSTM      63  57  82 N23G36    30.14R VSB 1
$$

INZ001>003-010>013-019-020-020000-
NORTHWEST INDIANA

CITY           SKY/WX    TMP DP  RH WIND       PRES   REMARKS
GARY*          PTSUNNY   75  57  53 SE5       30.09R
MICHIGAN CITY* NOT AVBL
RENSSELAER*    NOT AVBL
VALPARAISO     PTSUNNY   68  60  75 CALM      30.09R
$$

LMZ740>746-020000-
SOUTHERN LAKE MICHIGAN

STATION/POSITION TIME  SKY/WX   TEMP WIND        PRES    VSBY
                                AIR  DIR/SP/G
                 (UTC)          (F)  (DEG/KT/KT) (MB)    (MI)
HARRISON CRIB    2300            70  180/  8/  9   N/A
BURNHAM HARBOR   2300            76  150/  4/  7   N/A
CALUMET HARBOR   2300            76  180/  7/ 11 1017.2R
BURNS HARBOR     2300            77  230/  6/  8   N/A
MICHIGAN CITY    2300            75  250/  7/  9   N/A
$$

ABBREVIATIONS USED IN REMARKS
   TC - TEMPERATURE IN CELSIUS
  WCI - WIND CHILL INDEX
   HX - HEAT INDEX
  VSB - VISIBILITY
$$



USA.gov is the U.S. government's official web portal to all federal, state and local government web resources and services.